M0SDM Weather Reports


Display with metric or nautical units.
time (UTC)temp
F
wind
direction
speed
MPH
gust
MPH
rain 1hr
in
rain 24hr
in
rain mn
in
humidity
%
barometer
mb
20260507132521 61 199 0.0 4.0 0.00 0.00 0.00 52 1013.1
20260507131021 59 127 2.0 4.0 0.00 0.00 0.00 55 1013.2
20260507125521 58 118 0.0 7.0 0.00 0.00 0.00 56 1013.2
20260507124021 61 166 1.0 6.0 0.00 0.00 0.00 51 1013.4
20260507122521 61 197 2.0 4.0 0.00 0.00 0.00 53 1013.3
20260507121021 61 167 0.0 4.0 0.00 0.00 0.00 54 1013.6
20260507115521 59 196 1.0 7.0 0.00 0.00 0.00 57 1014.0
20260507114021 58 168 1.0 4.0 0.00 0.00 0.00 59 1014.2
20260507112521 58 217 2.0 4.0 0.00 0.00 0.00 62 1014.3
20260507111021 58 171 2.0 4.0 0.00 0.00 0.00 61 1014.7
20260507105521 56 153 2.0 4.0 0.00 0.00 0.00 65 1014.8
20260507104021 56 104 2.0 4.0 0.00 0.00 0.00 65 1015.2
20260507102521 55 176 1.0 4.0 0.00 0.00 0.00 66 1015.4
20260507101021 53 126 1.0 4.0 0.00 0.00 0.00 73 1015.6
20260507095521 53 178 2.0 4.0 0.00 0.00 0.00 74 1015.6
20260507094021 52 179 0.0 4.0 0.00 0.00 0.00 75 1015.8
20260507092521 52 134 2.0 4.0 0.00 0.00 0.00 74 1015.7
20260507091021 51 169 1.0 4.0 0.00 0.00 0.00 77 1016.0
20260507090550 52 190 1.0 4.0 0.00 0.00 0.00 75 1015.9
20260507085521 52 190 1.0 4.0 0.00 0.00 0.00 75 1015.9
20260507084021 51 176 0.0 4.0 0.00 0.00 0.00 77 1016.2
20260507082521 51 165 2.0 4.0 0.00 0.00 0.00 78 1016.3
20260507081021 51 180 2.0 4.0 0.00 0.00 0.00 77 1016.7
20260507075521 51 153 1.0 4.0 0.00 0.00 0.00 78 1016.5
20260507074021 49 194 2.0 4.0 0.00 0.00 0.00 82 1016.8
20260507072521 49 182 0.0 4.0 0.00 0.00 0.00 83 1016.8
20260507071021 48 169 0.0 2.0 0.00 0.00 0.00 85 1016.5
20260507065521 48 150 0.0 2.0 0.00 0.00 0.00 87 1016.6
20260507064021 45 148 0.0 2.0 0.00 0.00 0.00 96 1016.6
20260507062521 42 112 0.0 2.0 0.00 0.00 0.00 96 1016.6
20260507061021 40 0 0.0 0.0 0.00 0.00 0.00 96 1016.5
20260507055521 40 0 0.0 0.0 0.00 0.00 0.00 96 1016.5
20260507054021 39 0 0.0 0.0 0.00 0.00 0.00 96 1016.3
20260507052521 39 0 0.0 0.0 0.00 0.00 0.00 95 1016.4
20260507051021 38 0 0.0 0.0 0.00 0.00 0.00 95 1016.4
20260507045521 38 0 0.0 0.0 0.00 0.00 0.00 95 1016.2
20260507044021 38 0 0.0 0.0 0.00 0.00 0.00 96 1016.1
20260507042521 38 0 0.0 0.0 0.00 0.00 0.00 96 1016.0
20260507041021 38 0 0.0 0.0 0.00 0.00 0.00 96 1016.1
20260507035521 38 0 0.0 0.0 0.00 0.00 0.00 95 1016.1
20260507034021 38 0 0.0 0.0 0.00 0.00 0.00 95 1016.2
20260507032521 39 0 0.0 0.0 0.00 0.00 0.00 95 1016.0
20260507031021 40 0 0.0 0.0 0.00 0.00 0.00 95 1016.0
20260507025521 40 0 0.0 0.0 0.00 0.00 0.00 95 1015.9
20260507024021 41 0 0.0 0.0 0.00 0.00 0.00 95 1015.9
20260507022521 41 0 0.0 0.0 0.00 0.00 0.00 95 1016.1
20260507021021 41 0 0.0 0.0 0.00 0.00 0.00 95 1015.7
20260507015521 41 0 0.0 0.0 0.00 0.00 0.00 95 1016.2
20260507014021 41 0 0.0 0.0 0.00 0.00 0.00 95 1016.1
20260507012521 41 0 0.0 0.0 0.00 0.00 0.00 95 1016.1
20260507011021 41 0 0.0 0.0 0.00 0.00 0.00 95 1015.8
20260507005521 41 0 0.0 0.0 0.00 0.00 0.00 95 1016.0
20260507004021 40 0 0.0 0.0 0.00 0.00 0.00 95 1016.0
20260507002521 40 0 0.0 0.0 0.00 0.00 0.00 94 1016.1
20260507001021 40 0 0.0 0.0 0.00 0.00 0.00 94 1016.0
20260506235521 40 0 0.0 0.0 0.00 0.00 0.00 93 1015.8
20260506234021 41 0 0.0 0.0 0.00 0.00 0.00 92 1016.1
20260506232521 41 0 0.0 0.0 0.00 0.00 0.00 92 1016.1
20260506231021 42 202 0.0 2.0 0.00 0.00 0.00 90 1016.0
20260506225521 42 157 0.0 2.0 0.00 0.00 0.00 89 1015.7
20260506224021 43 124 0.0 2.0 0.00 0.00 0.00 89 1015.6
20260506222521 43 115 0.0 4.0 0.00 0.00 0.00 88 1015.4
20260506221021 44 187 0.0 2.0 0.00 0.00 0.00 89 1015.4
20260506215521 44 155 0.0 2.0 0.00 0.00 0.00 89 1015.6
20260506214021 44 0 0.0 0.0 0.00 0.00 0.00 91 1015.5
20260506212521 44 0 0.0 0.0 0.00 0.00 0.00 90 1015.5
20260506211021 44 157 0.0 2.0 0.00 0.00 0.00 90 1015.5
20260506205521 44 135 0.0 2.0 0.00 0.00 0.00 89 1015.2
20260506204021 44 139 1.0 2.0 0.00 0.00 0.00 89 1014.9
20260506202521 44 101 0.0 2.0 0.00 0.00 0.00 89 1015.0
20260506201021 45 161 0.0 2.0 0.00 0.00 0.00 88 1014.9
20260506195521 45 127 0.0 4.0 0.00 0.00 0.00 87 1014.7
20260506194021 45 69 1.0 2.0 0.00 0.00 0.00 86 1014.7
20260506192521 45 88 0.0 2.0 0.00 0.00 0.00 86 1014.6
20260506191021 46 110 1.0 4.0 0.00 0.00 0.00 85 1014.5
20260506185521 46 15 0.0 4.0 0.00 0.00 0.00 85 1014.2
20260506184021 46 99 1.0 4.0 0.00 0.00 0.00 84 1014.2
20260506182521 47 87 1.0 4.0 0.00 0.00 0.00 84 1014.2
20260506181021 47 116 1.0 4.0 0.00 0.00 0.00 83 1014.1
20260506175521 47 100 1.0 4.0 0.00 0.00 0.00 83 1014.0
20260506174021 47 103 0.0 4.0 0.00 0.00 0.00 84 1013.9
20260506172521 47 133 1.0 4.0 0.00 0.00 0.00 85 1013.8
20260506171021 47 106 0.0 4.0 0.00 0.00 0.00 87 1013.8
20260506165521 47 123 1.0 4.0 0.00 0.00 0.00 87 1013.7
20260506164021 47 131 0.0 2.0 0.00 0.00 0.00 87 1013.5
20260506162521 48 83 1.0 4.0 0.00 0.00 0.00 88 1013.5
20260506161021 47 46 0.0 4.0 0.00 0.00 0.00 89 1013.5
20260506155521 47 103 0.0 4.0 0.00 0.00 0.00 90 1013.5
20260506154021 47 21 1.0 4.0 0.00 0.00 0.00 89 1013.4
20260506152521 47 330 2.0 4.0 0.00 0.00 0.00 89 1013.2
20260506151021 47 73 0.0 4.0 0.00 0.00 0.00 87 1013.0
20260506145521 48 245 1.0 2.0 0.00 0.00 0.00 89 1013.1
20260506144021 47 330 0.0 4.0 0.00 0.00 0.00 88 1012.9
20260506142521 48 282 2.0 4.0 0.00 0.00 0.00 87 1012.6
20260506141021 49 312 1.0 4.0 0.00 0.00 0.00 84 1012.6
20260506135521 49 311 1.0 4.0 0.00 0.00 0.00 80 1012.4
20260506134021 51 351 1.0 6.0 0.00 0.00 0.00 75 1012.4